Regional Weather Roundup
Issued by NWS Charleston, WV

Home | Current Version | Previous Version | Graphics & Text | Print | Product List | Glossary On
Versions: 1 2 3 4 5 6 7 8 9 10 11 12 13 14 15 16 17 18 19 20 21 22 23 24 25 26
000
ASUS41 KRLX 130310
RWRRLX
West Virginia Regional Weather Roundup
National Weather Service Charleston WV
1000 PM EST TUE DEC 12 2017

Note: "fair" indicates few or no clouds below 12,000 feet with no
significant weather and/or obstructions to visibility.

WVZ003-130400-
Northern Panhandle of West Virginia

CITY           SKY/WX    TMP DP  RH WIND       PRES   REMARKS
WHEELING       CLEAR     15   2  56 W13G24    29.82F WCI   1
$$

WVZ009-130400-
Northwest West Virginia

CITY           SKY/WX    TMP DP  RH WIND       PRES   REMARKS
PARKERSBURG    CLOUDY    21  15  78 W10       29.93S WCI  10
$$

WVZ006-130400-
Western West Virginia

CITY           SKY/WX    TMP DP  RH WIND       PRES   REMARKS
HUNTINGTON     MOCLDY    25  10  53 NW13      29.97R
$$

WVZ015-130400-
West Central West Virginia

CITY           SKY/WX    TMP DP  RH WIND       PRES   REMARKS
CHARLESTON     FLURRIES  22  13  68 W9G24     29.93S
$$

WVZ022-031-130400-
North Central West Virginia

CITY           SKY/WX    TMP DP  RH WIND       PRES   REMARKS
CLARKSBURG     CLOUDY    20   5  52 NW13G24   29.83S WCI   7
MORGANTOWN     MOCLDY    18   4  54 NW6       29.82F WCI  10
$$

WVZ025-035-042-045-130400-
Southern West Virginia

CITY           SKY/WX    TMP DP  RH WIND       PRES   REMARKS
BECKLEY        LGT SNOW  16   9  74 NW16G26   29.79S WCI   1
LOGAN          LGT SNOW  21  18  86 CALM      29.90S
BLUEFIELD      LGT SNOW  16   8  71 NW17G30   29.77S WCI   0
LEWISBURG      FLURRIES  18   9  65 NW9G24    29.77R WCI   7
$$

WVZ047-130400-
Northern Mountains of West Virginia

CITY           SKY/WX    TMP DP  RH WIND       PRES   REMARKS
ELKINS         CLOUDY    17   5  59 NW14G25   29.75F WCI   3
$$

WVZ052-130400-
Eastern Panhandle of West Virginia

CITY           SKY/WX    TMP DP  RH WIND       PRES   REMARKS
MARTINSBURG    PTCLDY    22  -1  36 NW21G30   29.73F WCI   6
PETERSBURG     CLOUDY    21   5  49 NW13G22   29.77F WCI   9
$$




USA.gov is the U.S. government's official web portal to all federal, state and local government web resources and services.